Terminal Aerodrome Forecast
Issued by NWS Portland, OR

Home | Current Version | Previous Version | Text Only | Print | Product List | Glossary On
Versions: 1 2 3 4 5 6 7 8 9 10 11 12 13 14 15 16 17 18 19 20 21 22 23 24 25 26 27 28 29 30 31 32 33 34 35 36 37 38 39 40 41 42 43 44 45 46 47 48
000
FTUS46 KPQR 262333
TAFAST
TAF
KAST 262333Z 2700/2724 18013G22KT P6SM SCT012 SCT045
     FM270500 19018G28KT 6SM -RA BR SCT012 BKN025 OVC040
     FM271200 21017G27KT 5SM RA BR BKN012 OVC025
     FM271800 20012G20KT 5SM -SHRA BR SCT008 OVC018=

USA.gov is the U.S. government's official web portal to all federal, state and local government web resources and services.